Time,TemperatureF,DewpointF,PressureIn,WindDirection,WindDirectionDegrees,WindSpeedMPH,WindSpeedGustMPH,Humidity,HourlyPrecipIn,Conditions,Clouds,dailyrainin,SoftwareType,DateUTC
2017-04-28 00:03:00,25.2,20.3,29.59,East,90,0.0,2.4,81,0.00,,,0.00,WUHU21636XXSP,2017-04-28 04:03:00,
2017-04-28 00:08:00,25.2,20.3,29.60,East,90,0.0,2.4,82,0.00,,,0.00,WUHU21636XXSP,2017-04-28 04:08:00,
2017-04-28 00:13:00,25.0,20.1,29.59,East,90,0.0,0.0,82,0.00,,,0.00,WUHU21636XXSP,2017-04-28 04:13:00,
2017-04-28 00:18:00,25.0,20.1,29.59,East,90,0.0,0.0,82,0.00,,,0.00,WUHU21636XXSP,2017-04-28 04:18:00,
2017-04-28 00:23:00,25.0,20.1,29.60,East,90,0.0,0.0,82,0.00,,,0.00,WUHU21636XXSP,2017-04-28 04:23:00,
2017-04-28 00:28:00,25.0,20.1,29.60,East,90,0.0,0.0,82,0.00,,,0.00,WUHU21636XXSP,2017-04-28 04:28:00,
2017-04-28 00:33:00,25.0,20.1,29.60,East,90,0.0,0.0,82,0.00,,,0.00,WUHU21636XXSP,2017-04-28 04:33:00,
2017-04-28 00:38:00,25.0,20.1,29.60,East,90,0.0,0.0,82,0.00,,,0.00,WUHU21636XXSP,2017-04-28 04:38:00,
2017-04-28 00:43:00,25.0,20.1,29.60,East,90,0.0,0.0,82,0.00,,,0.00,WUHU21636XXSP,2017-04-28 04:43:00,
2017-04-28 00:48:00,25.0,20.1,29.60,East,90,0.0,0.0,82,0.00,,,0.00,WUHU21636XXSP,2017-04-28 04:48:00,
2017-04-28 00:53:00,25.0,20.1,29.60,East,90,0.0,0.0,82,0.00,,,0.00,WUHU21636XXSP,2017-04-28 04:53:00,
2017-04-28 00:58:00,25.0,20.1,29.60,East,90,0.0,0.0,82,0.00,,,0.00,WUHU21636XXSP,2017-04-28 04:58:00,
2017-04-28 01:03:00,25.0,20.1,29.60,East,90,0.0,0.0,82,0.00,,,0.00,WUHU21636XXSP,2017-04-28 05:03:00,
2017-04-28 01:08:00,25.0,20.1,29.60,East,90,0.2,0.2,82,0.00,,,0.00,WUHU21636XXSP,2017-04-28 05:08:00,
2017-04-28 01:13:00,25.0,20.1,29.60,East,90,0.0,0.2,82,0.00,,,0.00,WUHU21636XXSP,2017-04-28 05:13:00,
2017-04-28 01:18:00,25.0,20.1,29.61,East,90,0.0,0.2,82,0.00,,,0.00,WUHU21636XXSP,2017-04-28 05:18:00,
2017-04-28 01:23:00,25.2,20.3,29.61,East,90,0.0,0.0,82,0.00,,,0.00,WUHU21636XXSP,2017-04-28 05:23:00,
2017-04-28 01:28:00,25.2,20.3,29.61,East,90,0.0,0.0,82,0.00,,,0.00,WUHU21636XXSP,2017-04-28 05:28:00,
2017-04-28 01:33:00,25.2,20.3,29.61,East,90,0.0,0.0,82,0.00,,,0.00,WUHU21636XXSP,2017-04-28 05:33:00,
2017-04-28 01:38:00,25.2,20.3,29.61,East,90,0.0,1.3,82,0.00,,,0.00,WUHU21636XXSP,2017-04-28 05:38:00,
2017-04-28 01:43:00,25.2,20.3,29.61,East,90,0.0,1.3,82,0.00,,,0.00,WUHU21636XXSP,2017-04-28 05:43:00,
2017-04-28 01:48:00,25.2,20.3,29.61,East,90,0.0,0.0,82,0.00,,,0.00,WUHU21636XXSP,2017-04-28 05:48:00,
2017-04-28 01:53:00,25.2,20.3,29.62,East,90,0.0,0.0,82,0.00,,,0.00,WUHU21636XXSP,2017-04-28 05:53:00,
2017-04-28 01:58:00,25.2,20.3,29.62,East,90,0.0,0.0,82,0.00,,,0.00,WUHU21636XXSP,2017-04-28 05:58:00,
2017-04-28 02:03:00,25.2,20.3,29.62,East,90,0.0,0.0,82,0.00,,,0.00,WUHU21636XXSP,2017-04-28 06:03:00,
2017-04-28 02:08:00,25.2,20.3,29.62,East,90,0.0,0.0,82,0.00,,,0.00,WUHU21636XXSP,2017-04-28 06:08:00,
2017-04-28 02:13:00,25.2,20.3,29.62,East,90,0.0,0.0,82,0.00,,,0.00,WUHU21636XXSP,2017-04-28 06:13:00,
2017-04-28 02:18:00,25.2,20.3,29.62,East,90,0.0,0.0,82,0.00,,,0.00,WUHU21636XXSP,2017-04-28 06:18:00,
2017-04-28 02:23:00,25.2,20.3,29.62,East,90,0.0,0.0,82,0.00,,,0.00,WUHU21636XXSP,2017-04-28 06:23:00,
2017-04-28 02:28:00,25.2,20.3,29.62,East,90,0.0,0.0,82,0.00,,,0.00,WUHU21636XXSP,2017-04-28 06:28:00,
2017-04-28 02:33:00,25.2,20.3,29.62,East,90,0.0,0.0,82,0.00,,,0.00,WUHU21636XXSP,2017-04-28 06:33:00,
2017-04-28 02:38:00,25.2,20.3,29.62,East,90,0.0,0.0,82,0.00,,,0.00,WUHU21636XXSP,2017-04-28 06:38:00,
2017-04-28 02:43:00,25.0,20.1,29.62,East,90,0.0,0.0,82,0.00,,,0.00,WUHU21636XXSP,2017-04-28 06:43:00,
2017-04-28 02:48:00,25.0,20.1,29.62,East,90,0.0,0.0,82,0.00,,,0.00,WUHU21636XXSP,2017-04-28 06:48:00,
2017-04-28 02:53:00,25.0,20.1,29.62,East,90,0.0,0.0,82,0.00,,,0.00,WUHU21636XXSP,2017-04-28 06:53:00,
2017-04-28 02:58:00,25.0,20.1,29.62,East,90,0.0,0.0,82,0.00,,,0.00,WUHU21636XXSP,2017-04-28 06:58:00,
2017-04-28 03:03:00,25.2,20.7,29.62,East,90,0.0,0.0,83,0.00,,,0.00,WUHU21636XXSP,2017-04-28 07:03:00,
2017-04-28 03:08:00,25.2,20.7,29.62,East,90,0.0,0.0,83,0.00,,,0.00,WUHU21636XXSP,2017-04-28 07:08:00,
2017-04-28 03:13:00,25.2,20.7,29.62,East,90,0.0,0.0,83,0.00,,,0.00,WUHU21636XXSP,2017-04-28 07:13:00,
2017-04-28 03:18:00,25.2,20.7,29.62,East,90,0.0,0.0,83,0.00,,,0.00,WUHU21636XXSP,2017-04-28 07:18:00,
2017-04-28 03:23:00,25.2,20.7,29.62,East,90,0.0,0.0,83,0.00,,,0.00,WUHU21636XXSP,2017-04-28 07:23:00,
2017-04-28 03:28:00,25.2,20.7,29.62,East,90,0.0,0.0,83,0.00,,,0.00,WUHU21636XXSP,2017-04-28 07:28:00,
2017-04-28 03:33:00,25.2,20.7,29.62,East,90,0.0,0.0,83,0.00,,,0.00,WUHU21636XXSP,2017-04-28 07:33:00,
2017-04-28 03:38:00,25.2,20.7,29.63,East,90,0.0,0.0,83,0.00,,,0.00,WUHU21636XXSP,2017-04-28 07:38:00,
2017-04-28 03:43:00,25.2,20.7,29.63,East,90,0.0,0.0,83,0.00,,,0.00,WUHU21636XXSP,2017-04-28 07:43:00,
2017-04-28 03:48:00,25.2,20.7,29.63,East,90,0.0,0.0,83,0.00,,,0.00,WUHU21636XXSP,2017-04-28 07:48:00,
2017-04-28 03:53:00,25.2,20.7,29.63,East,90,0.0,0.0,83,0.00,,,0.00,WUHU21636XXSP,2017-04-28 07:53:00,
2017-04-28 03:58:00,25.2,20.7,29.63,East,90,0.0,0.0,83,0.00,,,0.00,WUHU21636XXSP,2017-04-28 07:58:00,
2017-04-28 04:03:00,25.2,20.7,29.63,East,90,0.0,0.0,83,0.00,,,0.00,WUHU21636XXSP,2017-04-28 08:03:00,
2017-04-28 04:08:00,25.2,20.7,29.63,East,90,0.0,0.0,83,0.00,,,0.00,WUHU21636XXSP,2017-04-28 08:08:00,
2017-04-28 04:13:00,25.2,20.7,29.64,East,90,0.0,0.0,83,0.00,,,0.00,WUHU21636XXSP,2017-04-28 08:13:00,
2017-04-28 04:18:00,25.2,20.7,29.63,East,90,0.0,0.0,83,0.00,,,0.00,WUHU21636XXSP,2017-04-28 08:18:00,
2017-04-28 04:23:00,25.2,20.7,29.63,East,90,0.0,0.0,83,0.00,,,0.00,WUHU21636XXSP,2017-04-28 08:23:00,
2017-04-28 04:28:00,25.3,20.8,29.64,East,90,0.0,0.0,83,0.00,,,0.00,WUHU21636XXSP,2017-04-28 08:28:00,
2017-04-28 04:33:00,25.2,20.7,29.64,East,90,0.0,0.0,83,0.00,,,0.00,WUHU21636XXSP,2017-04-28 08:33:00,
2017-04-28 04:38:00,25.2,20.7,29.64,East,90,0.0,0.0,83,0.00,,,0.00,WUHU21636XXSP,2017-04-28 08:38:00,
2017-04-28 04:43:00,25.2,20.7,29.64,East,90,0.0,0.0,83,0.00,,,0.00,WUHU21636XXSP,2017-04-28 08:43:00,
2017-04-28 04:48:00,25.2,20.7,29.64,East,90,0.0,0.0,83,0.00,,,0.00,WUHU21636XXSP,2017-04-28 08:48:00,
2017-04-28 04:53:00,25.2,20.7,29.64,East,90,0.0,0.0,84,0.00,,,0.00,WUHU21636XXSP,2017-04-28 08:53:00,
2017-04-28 04:58:00,25.2,20.7,29.65,East,90,0.0,0.0,84,0.00,,,0.00,WUHU21636XXSP,2017-04-28 08:58:00,
2017-04-28 05:03:00,25.3,21.0,29.65,East,90,0.0,0.0,84,0.00,,,0.00,WUHU21636XXSP,2017-04-28 09:03:00,
2017-04-28 05:08:00,25.3,21.0,29.65,East,90,0.0,0.0,84,0.00,,,0.00,WUHU21636XXSP,2017-04-28 09:08:00,
2017-04-28 05:13:00,25.2,20.8,29.65,East,90,0.0,0.0,84,0.00,,,0.00,WUHU21636XXSP,2017-04-28 09:13:00,
2017-04-28 05:18:00,25.2,20.8,29.65,East,90,0.0,0.0,84,0.00,,,0.00,WUHU21636XXSP,2017-04-28 09:18:00,
2017-04-28 05:23:00,25.3,21.0,29.65,East,90,0.0,0.0,84,0.00,,,0.00,WUHU21636XXSP,2017-04-28 09:23:00,
2017-04-28 05:28:00,25.2,20.8,29.65,East,90,0.0,0.0,84,0.00,,,0.00,WUHU21636XXSP,2017-04-28 09:28:00,
2017-04-28 05:33:00,25.2,20.8,29.65,East,90,0.0,0.0,84,0.00,,,0.00,WUHU21636XXSP,2017-04-28 09:33:00,
2017-04-28 05:38:00,25.2,20.8,29.66,East,90,0.0,0.0,84,0.00,,,0.00,WUHU21636XXSP,2017-04-28 09:38:00,
2017-04-28 05:43:00,25.2,20.8,29.66,East,90,0.0,0.0,84,0.00,,,0.00,WUHU21636XXSP,2017-04-28 09:43:00,
2017-04-28 05:48:00,25.3,21.0,29.66,East,90,0.0,0.0,84,0.00,,,0.00,WUHU21636XXSP,2017-04-28 09:48:00,
2017-04-28 05:53:00,25.3,21.0,29.66,East,90,0.0,0.0,84,0.00,,,0.00,WUHU21636XXSP,2017-04-28 09:53:00,
2017-04-28 05:58:00,25.3,21.0,29.66,East,90,0.0,0.0,84,0.00,,,0.00,WUHU21636XXSP,2017-04-28 09:58:00,
2017-04-28 06:03:00,25.3,21.0,29.67,East,90,0.0,0.0,84,0.00,,,0.00,WUHU21636XXSP,2017-04-28 10:03:00,
2017-04-28 06:08:00,25.3,21.0,29.67,East,90,0.0,0.0,84,0.00,,,0.00,WUHU21636XXSP,2017-04-28 10:08:00,
2017-04-28 06:13:00,25.3,21.0,29.67,East,90,0.0,0.0,85,0.00,,,0.00,WUHU21636XXSP,2017-04-28 10:13:00,
2017-04-28 06:18:00,25.3,21.0,29.67,East,90,0.0,0.0,85,0.00,,,0.00,WUHU21636XXSP,2017-04-28 10:18:00,
2017-04-28 06:23:00,25.5,21.6,29.67,East,90,0.0,0.0,85,0.00,,,0.00,WUHU21636XXSP,2017-04-28 10:23:00,
2017-04-28 06:28:00,25.5,21.6,29.67,East,90,0.0,0.0,85,0.00,,,0.00,WUHU21636XXSP,2017-04-28 10:28:00,
2017-04-28 06:33:00,25.5,21.6,29.67,East,90,0.0,0.0,85,0.00,,,0.00,WUHU21636XXSP,2017-04-28 10:33:00,
2017-04-28 06:38:00,25.7,21.7,29.67,East,90,0.0,0.0,85,0.00,,,0.00,WUHU21636XXSP,2017-04-28 10:38:00,
2017-04-28 06:43:00,25.7,21.7,29.67,East,90,0.0,0.0,85,0.00,,,0.00,WUHU21636XXSP,2017-04-28 10:43:00,
2017-04-28 06:48:00,25.7,21.7,29.68,East,90,0.0,0.0,85,0.00,,,0.00,WUHU21636XXSP,2017-04-28 10:48:00,
2017-04-28 06:53:00,25.7,21.7,29.68,East,90,0.0,0.0,85,0.00,,,0.00,WUHU21636XXSP,2017-04-28 10:53:00,
2017-04-28 06:58:00,25.7,21.7,29.68,East,90,0.0,0.0,85,0.00,,,0.00,WUHU21636XXSP,2017-04-28 10:58:00,
2017-04-28 07:03:00,25.7,21.7,29.68,East,90,0.0,0.0,85,0.00,,,0.00,WUHU21636XXSP,2017-04-28 11:03:00,
2017-04-28 07:08:00,25.9,21.9,29.69,East,90,0.0,0.0,85,0.00,,,0.00,WUHU21636XXSP,2017-04-28 11:08:00,
2017-04-28 07:13:00,25.9,21.9,29.69,East,90,0.0,0.0,85,0.00,,,0.00,WUHU21636XXSP,2017-04-28 11:13:00,
2017-04-28 07:18:00,25.9,21.9,29.69,East,90,0.0,0.0,85,0.00,,,0.00,WUHU21636XXSP,2017-04-28 11:18:00,
2017-04-28 07:23:00,25.9,21.9,29.69,East,90,0.0,0.0,85,0.00,,,0.00,WUHU21636XXSP,2017-04-28 11:23:00,
2017-04-28 07:28:00,25.9,21.9,29.70,East,90,0.0,0.0,85,0.00,,,0.00,WUHU21636XXSP,2017-04-28 11:28:00,
2017-04-28 07:33:00,26.2,22.3,29.69,East,90,0.0,0.0,85,0.00,,,0.00,WUHU21636XXSP,2017-04-28 11:33:00,
2017-04-28 07:38:00,26.2,22.3,29.70,East,90,0.0,0.0,85,0.00,,,0.00,WUHU21636XXSP,2017-04-28 11:38:00,
2017-04-28 07:43:00,26.2,22.3,29.70,East,90,0.0,0.0,85,0.00,,,0.00,WUHU21636XXSP,2017-04-28 11:43:00,
2017-04-28 07:48:00,26.2,22.3,29.70,East,90,0.0,0.0,85,0.00,,,0.00,WUHU21636XXSP,2017-04-28 11:48:00,
2017-04-28 07:53:00,26.2,22.3,29.70,East,90,0.0,0.0,85,0.00,,,0.00,WUHU21636XXSP,2017-04-28 11:53:00,
2017-04-28 07:58:00,26.2,22.3,29.71,East,90,0.0,0.0,85,0.00,,,0.00,WUHU21636XXSP,2017-04-28 11:58:00,
2017-04-28 08:03:00,26.8,22.8,29.70,East,90,0.0,0.0,85,0.00,,,0.00,WUHU21636XXSP,2017-04-28 12:03:00,
2017-04-28 08:08:00,27.0,23.0,29.71,East,90,0.0,0.0,85,0.00,,,0.00,WUHU21636XXSP,2017-04-28 12:08:00,
2017-04-28 08:13:00,27.1,23.2,29.71,East,90,0.2,0.2,85,0.00,,,0.00,WUHU21636XXSP,2017-04-28 12:13:00,
2017-04-28 08:18:00,27.1,23.2,29.71,East,90,0.2,0.2,85,0.00,,,0.00,WUHU21636XXSP,2017-04-28 12:18:00,
2017-04-28 08:23:00,27.7,23.4,29.71,East,90,0.0,0.2,84,0.00,,,0.00,WUHU21636XXSP,2017-04-28 12:23:00,
2017-04-28 08:28:00,27.9,23.5,29.72,East,90,0.0,0.0,84,0.00,,,0.00,WUHU21636XXSP,2017-04-28 12:28:00,
2017-04-28 08:33:00,27.9,23.5,29.72,East,90,0.0,0.0,84,0.00,,,0.00,WUHU21636XXSP,2017-04-28 12:33:00,
2017-04-28 08:38:00,27.9,23.5,29.72,East,90,0.0,0.0,84,0.00,,,0.00,WUHU21636XXSP,2017-04-28 12:38:00,
2017-04-28 08:43:00,28.2,23.9,29.72,East,90,0.0,0.0,84,0.00,,,0.00,WUHU21636XXSP,2017-04-28 12:43:00,
2017-04-28 08:48:00,28.6,23.9,29.72,East,90,0.0,0.0,83,0.00,,,0.00,WUHU21636XXSP,2017-04-28 12:48:00,
2017-04-28 08:53:00,28.6,23.9,29.72,East,90,0.0,0.0,83,0.00,,,0.00,WUHU21636XXSP,2017-04-28 12:53:00,
2017-04-28 08:58:00,28.6,23.9,29.72,East,90,0.0,0.0,83,0.00,,,0.00,WUHU21636XXSP,2017-04-28 12:58:00,
2017-04-28 08:59:00,29.1,24.4,29.72,East,90,0.0,0.0,83,0.00,,,0.00,WUHU21636XXSP,2017-04-28 12:59:00,
2017-04-28 09:04:00,29.1,24.4,29.72,East,90,0.0,0.0,83,0.00,,,0.00,WUHU21636XXSP,2017-04-28 13:04:00,
2017-04-28 09:09:00,29.8,25.2,29.72,East,90,0.0,0.0,83,0.00,,,0.00,WUHU21636XXSP,2017-04-28 13:09:00,
2017-04-28 09:14:00,29.8,25.2,29.72,East,90,2.7,2.7,82,0.00,,,0.00,WUHU21636XXSP,2017-04-28 13:14:00,
2017-04-28 09:19:00,30.4,25.0,29.72,East,90,5.6,8.5,79,0.00,,,0.00,WUHU21636XXSP,2017-04-28 13:19:00,
2017-04-28 09:24:00,30.4,24.6,29.72,East,90,0.0,8.5,79,0.00,,,0.00,WUHU21636XXSP,2017-04-28 13:24:00,
2017-04-28 09:29:00,30.0,24.3,29.72,East,90,0.0,5.6,79,0.00,,,0.00,WUHU21636XXSP,2017-04-28 13:29:00,
2017-04-28 09:34:00,30.0,24.3,29.72,East,90,0.0,0.0,79,0.00,,,0.00,WUHU21636XXSP,2017-04-28 13:34:00,
2017-04-28 09:39:00,30.0,24.3,29.73,East,90,0.0,0.0,79,0.00,,,0.00,WUHU21636XXSP,2017-04-28 13:39:00,
2017-04-28 09:44:00,30.0,24.3,29.72,East,90,0.0,0.0,79,0.00,,,0.00,WUHU21636XXSP,2017-04-28 13:44:00,
2017-04-28 09:49:00,30.9,24.8,29.73,East,90,2.0,2.0,78,0.00,,,0.00,WUHU21636XXSP,2017-04-28 13:49:00,
2017-04-28 09:54:00,30.9,24.8,29.73,East,90,2.0,2.0,78,0.00,,,0.00,WUHU21636XXSP,2017-04-28 13:54:00,
2017-04-28 09:59:00,30.9,24.8,29.73,East,90,3.8,3.8,76,0.00,,,0.00,WUHU21636XXSP,2017-04-28 13:59:00,
2017-04-28 10:04:00,30.9,24.8,29.73,East,90,3.8,3.8,76,0.00,,,0.00,WUHU21636XXSP,2017-04-28 14:04:00,
2017-04-28 10:09:00,30.9,24.8,29.73,East,90,2.0,6.2,76,0.00,,,0.00,WUHU21636XXSP,2017-04-28 14:09:00,
2017-04-28 10:14:00,30.9,24.8,29.73,East,90,2.0,6.2,76,0.00,,,0.00,WUHU21636XXSP,2017-04-28 14:14:00,
2017-04-28 10:19:00,30.9,24.8,29.73,East,90,1.7,6.7,77,0.00,,,0.00,WUHU21636XXSP,2017-04-28 14:19:00,
2017-04-28 10:24:00,30.9,24.8,29.73,East,90,1.7,6.7,77,0.00,,,0.00,WUHU21636XXSP,2017-04-28 14:24:00,
2017-04-28 10:29:00,31.3,24.4,29.73,East,90,0.0,1.7,76,0.00,,,0.00,WUHU21636XXSP,2017-04-28 14:29:00,
2017-04-28 10:34:00,31.1,24.3,29.73,East,90,0.0,1.7,76,0.00,,,0.00,WUHU21636XXSP,2017-04-28 14:34:00,
2017-04-28 10:39:00,31.3,24.4,29.74,East,90,2.7,8.7,76,0.00,,,0.00,WUHU21636XXSP,2017-04-28 14:39:00,
2017-04-28 10:44:00,31.3,24.4,29.74,East,90,2.7,8.7,76,0.00,,,0.00,WUHU21636XXSP,2017-04-28 14:44:00,
2017-04-28 10:49:00,31.1,24.3,29.74,East,90,6.9,15.4,76,0.00,,,0.00,WUHU21636XXSP,2017-04-28 14:49:00,
2017-04-28 10:54:00,30.7,23.9,29.74,East,90,5.6,16.8,76,0.00,,,0.00,WUHU21636XXSP,2017-04-28 14:54:00,
2017-04-28 10:59:00,30.9,24.1,29.74,East,90,3.5,16.8,76,0.00,,,0.00,WUHU21636XXSP,2017-04-28 14:59:00,
2017-04-28 11:04:00,31.1,24.3,29.74,East,90,4.0,13.2,76,0.00,,,0.00,WUHU21636XXSP,2017-04-28 15:04:00,
2017-04-28 11:09:00,31.6,24.6,29.74,East,90,6.2,10.5,75,0.00,,,0.00,WUHU21636XXSP,2017-04-28 15:09:00,
2017-04-28 11:14:00,31.5,23.7,29.74,East,90,8.9,12.7,73,0.00,,,0.00,WUHU21636XXSP,2017-04-28 15:14:00,
2017-04-28 11:19:00,31.6,23.9,29.74,East,90,3.1,12.7,73,0.00,,,0.00,WUHU21636XXSP,2017-04-28 15:19:00,
2017-04-28 11:24:00,31.6,23.9,29.75,East,90,3.1,8.9,73,0.00,,,0.00,WUHU21636XXSP,2017-04-28 15:24:00,
2017-04-28 11:29:00,31.6,23.9,29.75,East,90,3.1,3.1,73,0.00,,,0.00,WUHU21636XXSP,2017-04-28 15:29:00,
2017-04-28 11:34:00,31.8,24.8,29.75,East,90,4.7,7.8,75,0.00,,,0.00,WUHU21636XXSP,2017-04-28 15:34:00,
2017-04-28 11:39:00,32.2,24.8,29.75,East,90,3.8,8.9,75,0.02,,,0.02,WUHU21636XXSP,2017-04-28 15:39:00,